When you browse on this site, cookies collect data to enhance your experience and personalize the content and advertising you see.
Visit our Privacy Policy to learn more. By continuing to use the site, you agree to this use of cookies and data.
  • en France
  • Liste des pays
  • À 7 jours
  • Température de l'eau
  • Carte satellitaire
  • Carte météo
  • Widgets météo
  • user-avatar
    Se connecter

    Météo par heure à Gluhari

    Ce jour, 19 Février, Mardi

    Heure Température Précipitation Vent Pression Humidité
    00:00 -4°C° 0 mm 5 m/s 750 mmHg 79%
    01:00 -4°C° 0 mm 5 m/s 750 mmHg 81%
    02:00 -4°C° 0 mm 5 m/s 749 mmHg 84%
    03:00 -2°C° 0 mm 5 m/s 749 mmHg 85%
    04:00 -2°C° 0 mm 5 m/s 748 mmHg 87%
    05:00 -2°C° 0 mm 5 m/s 748 mmHg 88%
    06:00 -1°C° 0 mm 4 m/s 747 mmHg 89%
    07:00 -1°C° 0 mm 4 m/s 747 mmHg 90%
    08:00 -1°C° 0 mm 4 m/s 747 mmHg 90%
    09:00 -1°C° 0 mm 4 m/s 746 mmHg 90%
    10:00 0°C° 0 mm 4 m/s 746 mmHg 90%
    11:00 0°C° 0 mm 4 m/s 746 mmHg 89%
    12:00 0°C° 0 mm 4 m/s 745 mmHg 89%
    13:00 0°C° 0 mm 4 m/s 744 mmHg 88%
    14:00 0°C° 0 mm 4 m/s 744 mmHg 88%
    15:00 0°C° 0 mm 4 m/s 743 mmHg 88%
    16:00 0°C° 0 mm 4 m/s 742 mmHg 89%
    17:00 0°C° 0 mm 4 m/s 741 mmHg 90%
    18:00 0°C° 0 mm 4 m/s 741 mmHg 90%
    19:00 0°C° 0 mm 4 m/s 740 mmHg 90%
    20:00 0°C° 0 mm 4 m/s 739 mmHg 90%
    21:00 0°C° 0.3 mm 4 m/s 739 mmHg 90%
    22:00 0°C° 0.3 mm 4 m/s 738 mmHg 90%
    23:00 0°C° 0.3 mm 4 m/s 738 mmHg 90%

    Demain, 20 Février, Mercredi

    Heure Température Précipitation Vent Pression Humidité
    00:00 0°C° 0.2 mm 4 m/s 737 mmHg 91%
    01:00 0°C° 0.2 mm 4 m/s 737 mmHg 92%
    02:00 0°C° 0.2 mm 4 m/s 737 mmHg 93%
    03:00 0°C° 0 mm 4 m/s 737 mmHg 93%
    04:00 0°C° 0 mm 4 m/s 736 mmHg 92%
    05:00 0°C° 0 mm 4 m/s 736 mmHg 92%
    06:00 0°C° 0.1 mm 4 m/s 736 mmHg 92%
    07:00 0°C° 0.1 mm 4 m/s 736 mmHg 92%
    08:00 0°C° 0.1 mm 4 m/s 736 mmHg 91%
    09:00 0°C° 0.3 mm 4 m/s 736 mmHg 90%
    10:00 +1°C° 0.3 mm 5 m/s 735 mmHg 88%
    11:00 +1°C° 0.3 mm 5 m/s 735 mmHg 86%
    12:00 +1°C° 0.2 mm 5 m/s 735 mmHg 86%
    13:00 +1°C° 0.2 mm 4 m/s 735 mmHg 86%
    14:00 0°C° 0.2 mm 4 m/s 735 mmHg 87%
    15:00 0°C° 0.3 mm 4 m/s 735 mmHg 86%
    16:00 -1°C° 0.3 mm 5 m/s 735 mmHg 86%
    17:00 -1°C° 0.3 mm 5 m/s 735 mmHg 86%
    18:00 -1°C° 0.3 mm 5 m/s 736 mmHg 86%
    19:00 -2°C° 0.3 mm 5 m/s 736 mmHg 87%
    20:00 -3°C° 0.3 mm 6 m/s 737 mmHg 88%
    21:00 -4°C° 0.2 mm 6 m/s 738 mmHg 86%
    22:00 -4°C° 0.2 mm 6 m/s 739 mmHg 84%
    23:00 -5°C° 0.2 mm 6 m/s 739 mmHg 82%

    Après-demain, 21 Février, Jeudi

    Heure Température Précipitation Vent Pression Humidité
    00:00 -5°C° 0 mm 6 m/s 740 mmHg 81%
    01:00 -6°C° 0 mm 6 m/s 741 mmHg 79%
    02:00 -6°C° 0 mm 6 m/s 742 mmHg 78%
    03:00 -6°C° 0.1 mm 6 m/s 742 mmHg 77%
    04:00 -8°C° 0.1 mm 6 m/s 743 mmHg 77%
    05:00 -9°C° 0.1 mm 6 m/s 744 mmHg 76%
    06:00 -9°C° 0.1 mm 6 m/s 745 mmHg 76%
    07:00 -9°C° 0.1 mm 6 m/s 745 mmHg 76%
    08:00 -9°C° 0.1 mm 6 m/s 746 mmHg 76%
    09:00 -9°C° 0.1 mm 6 m/s 747 mmHg 73%
    10:00 -9°C° 0.1 mm 6 m/s 748 mmHg 71%
    11:00 -9°C° 0.1 mm 6 m/s 749 mmHg 69%
    12:00 -8°C° 0 mm 5 m/s 750 mmHg 68%
    13:00 -8°C° 0 mm 5 m/s 751 mmHg 68%
    14:00 -8°C° 0 mm 5 m/s 751 mmHg 67%
    15:00 -8°C° 0 mm 5 m/s 752 mmHg 68%
    16:00 -10°C° 0 mm 5 m/s 753 mmHg 68%
    17:00 -10°C° 0 mm 5 m/s 754 mmHg 69%
    18:00 -9°C° 0 mm 4 m/s 755 mmHg 69%
    19:00 -10°C° 0 mm 4 m/s 755 mmHg 70%
    20:00 -10°C° 0 mm 4 m/s 756 mmHg 70%
    21:00 -10°C° 0 mm 4 m/s 757 mmHg 71%
    22:00 -10°C° 0 mm 4 m/s 758 mmHg 72%
    23:00 -11°C° 0 mm 4 m/s 758 mmHg 73%

    22 Février, Vendredi

    Heure Température Précipitation Vent Pression Humidité
    00:00 -11°C° 0 mm 4 m/s 759 mmHg 75%
    01:00 -10°C° 0 mm 3 m/s 760 mmHg 77%
    02:00 -10°C° 0 mm 3 m/s 761 mmHg 79%
    03:00 -12°C° 0 mm 3 m/s 761 mmHg 79%
    04:00 -12°C° 0 mm 3 m/s 762 mmHg 79%
    05:00 -12°C° 0 mm 3 m/s 762 mmHg 80%
    06:00 -12°C° 0 mm 3 m/s 763 mmHg 79%
    07:00 -12°C° 0 mm 3 m/s 763 mmHg 79%
    08:00 -10°C° 0 mm 2 m/s 764 mmHg 78%
    09:00 -10°C° 0 mm 3 m/s 764 mmHg 73%
    10:00 -10°C° 0 mm 4 m/s 764 mmHg 67%
    11:00 -8°C° 0 mm 4 m/s 764 mmHg 62%
    12:00 -8°C° 0 mm 4 m/s 765 mmHg 63%
    13:00 -7°C° 0 mm 4 m/s 765 mmHg 65%
    14:00 -7°C° 0 mm 5 m/s 765 mmHg 66%
    15:00 -8°C° 0 mm 4 m/s 765 mmHg 70%
    16:00 -8°C° 0 mm 4 m/s 765 mmHg 75%
    17:00 -8°C° 0 mm 3 m/s 765 mmHg 79%
    18:00 -8°C° 0 mm 3 m/s 766 mmHg 79%
    19:00 -8°C° 0 mm 3 m/s 766 mmHg 79%
    20:00 -8°C° 0 mm 3 m/s 767 mmHg 79%
    21:00 -8°C° 0 mm 2 m/s 767 mmHg 81%
    22:00 -8°C° 0 mm 2 m/s 767 mmHg 82%
    23:00 -7°C° 0 mm 1 m/s 767 mmHg 84%

    23 Février, Samedi

    Heure Température Précipitation Vent Pression Humidité
    00:00 -7°C° 0 mm 1 m/s 767 mmHg 86%
    01:00 -8°C° 0 mm 1 m/s 767 mmHg 88%
    02:00 -8°C° 0 mm 0 m/s 767 mmHg 90%
    03:00 -8°C° 0 mm 1 m/s 767 mmHg 89%
    04:00 -8°C° 0 mm 1 m/s 766 mmHg 89%
    05:00 -8°C° 0 mm 1 m/s 766 mmHg 88%
    06:00 -8°C° 0 mm 2 m/s 765 mmHg 87%
    07:00 -8°C° 0 mm 2 m/s 765 mmHg 87%
    08:00 -7°C° 0 mm 2 m/s 764 mmHg 86%
    09:00 -7°C° 0.3 mm 2 m/s 764 mmHg 87%
    10:00 -8°C° 0.3 mm 3 m/s 763 mmHg 88%
    11:00 -7°C° 0.3 mm 3 m/s 763 mmHg 90%
    12:00 -7°C° 0.5 mm 3 m/s 762 mmHg 89%
    13:00 -7°C° 0.5 mm 3 m/s 762 mmHg 89%
    14:00 -6°C° 0.5 mm 3 m/s 762 mmHg 89%
    15:00 -6°C° 0.1 mm 3 m/s 762 mmHg 90%
    16:00 -5°C° 0.1 mm 2 m/s 762 mmHg 90%
    17:00 -5°C° 0.1 mm 2 m/s 762 mmHg 90%
    18:00 -5°C° 0 mm 2 m/s 762 mmHg 91%
    19:00 -3°C° 0 mm 1 m/s 763 mmHg 92%
    20:00 -3°C° 0 mm 1 m/s 763 mmHg 93%
    21:00 -4°C° 0 mm 1 m/s 764 mmHg 94%
    22:00 -4°C° 0 mm 1 m/s 764 mmHg 95%
    23:00 -6°C° 0 mm 1 m/s 764 mmHg 96%

    24 Février, Dimanche

    Heure Température Précipitation Vent Pression Humidité
    00:00 -6°C° 0 mm 1 m/s 765 mmHg 96%
    01:00 -6°C° 0 mm 1 m/s 765 mmHg 96%
    02:00 -7°C° 0 mm 1 m/s 765 mmHg 96%
    03:00 -7°C° 0 mm 1 m/s 765 mmHg 96%
    04:00 -7°C° 0 mm 2 m/s 765 mmHg 96%
    05:00 -7°C° 0 mm 2 m/s 765 mmHg 97%
    06:00 -7°C° 0 mm 2 m/s 765 mmHg 96%
    07:00 -6°C° 0 mm 2 m/s 765 mmHg 95%
    08:00 -6°C° 0 mm 2 m/s 765 mmHg 94%
    09:00 -5°C° 0 mm 3 m/s 764 mmHg 92%
    10:00 -4°C° 0 mm 3 m/s 764 mmHg 90%
    11:00 -2°C° 0 mm 3 m/s 764 mmHg 87%
    12:00 -3°C° 0 mm 4 m/s 763 mmHg 87%
    13:00 -2°C° 0 mm 4 m/s 763 mmHg 87%
    14:00 -2°C° 0 mm 4 m/s 762 mmHg 86%
    15:00 -2°C° 0 mm 4 m/s 761 mmHg 87%
    16:00 -2°C° 0 mm 4 m/s 760 mmHg 88%
    17:00 -2°C° 0 mm 4 m/s 759 mmHg 89%
    18:00 -2°C° 0.2 mm 5 m/s 758 mmHg 89%
    19:00 -1°C° 0.2 mm 5 m/s 758 mmHg 90%
    20:00 -1°C° 0.2 mm 5 m/s 757 mmHg 90%
    21:00 -1°C° 0.1 mm 4 m/s 756 mmHg 91%
    22:00 -1°C° 0.1 mm 4 m/s 756 mmHg 93%
    23:00 0°C° 0.1 mm 4 m/s 755 mmHg 94%
    Voir plus